Weather History for Fremont, MI

Change the Weather History Date:

Monday, May 6, 2013

  Actual Average (KMKG) Record (KMKG)
Temperature  
Mean Temperature 63 °F 54 °F  
Max Temperature 78 °F 64 °F 85 °F (1959)
Min Temperature 48 °F 44 °F 26 °F (1967)
Degree Days  
Heating Degree Days 2 12  
Month to date heating degree days 74  
Since 1 July heating degree days 6292  
Cooling Degree Days 0 0  
Month to date cooling degree days 0  
Year to date cooling degree days 4  
Growing Degree Days 13 (Base 50)    
Moisture  
Dew Point 34 °F    
Average Humidity 38    
Maximum Humidity 68    
Minimum Humidity 15    
Precipitation  
Precipitation 0.00 in 0.10 in 1.44 in (1941)
Month to date precipitation 0.61  
Year to date precipitation 9.63  
Snow  
Snow 0.00 in 0.00 in T in (1989)
Month to date snowfall 0.0  
Since 1 July snowfall 93.7  
Snow Depth -    
Sea Level Pressure  
Sea Level Pressure 30.02 in    
Wind  
Wind Speed 4 mph (ENE)    
Max Wind Speed 10 mph    
Max Gust Speed 16 mph    
Visibility 10 miles    
Events      
T = Trace of Precipitation, MM = Missing Value Source: NWS Daily Summary

Daily Weather History Graph

Daily Weather History Graph

Search for Another Location

Airport:

Trip Planner

Search our weather history database for the weather conditions in past years. The results will help you decide how hot, cold, wet, or windy it might be!

Date:

Astronomy

May. 06, 2013 Rise Set
Actual Time 6:29 AM EDT 8:52 PM EDT
Civil Twilight 5:57 AM EDT 9:24 PM EDT
Nautical Twilight 5:18 AM EDT 10:03 PM EDT
Astronomical Twilight 4:34 AM EDT 10:48 PM EDT
Moon 4:37 AM EDT (5/6) 5:46 PM EDT (5/6)
Length of Visible Light 15h 26m
Length of Day
14h 22m
Waning Crescent, 11% of the Moon is Illuminated
May 6
Waning Crescent
May 9
New
May 18
First Quarter
May 25
Full
May 31
Last Quarter

Hourly Weather History & Observations

Time (EDT) Temp. Dew Point Humidity Pressure Visibility Wind Dir Wind Speed Gust Speed Precip Events Conditions
12:15 AM 56.7 °F 33.3 °F 41% 30.05 in 10.0 mi ENE 4.6 mph - N/A   Clear
12:35 AM 57.2 °F 30.0 °F 36% 30.05 in 10.0 mi East 3.5 mph - N/A   Clear
12:54 AM 57.6 °F 29.1 °F 34% 30.05 in 10.0 mi Calm Calm - N/A   Clear
1:15 AM 57.2 °F 29.3 °F 35% 30.05 in 10.0 mi Calm Calm - N/A   Clear
1:35 AM 55.9 °F 33.1 °F 42% 30.05 in 10.0 mi Calm Calm - N/A   Clear
1:55 AM 55.6 °F 32.7 °F 42% 30.05 in 10.0 mi NE 3.5 mph - N/A   Clear
2:35 AM 54.7 °F 33.4 °F 45% 30.04 in 10.0 mi ENE 4.6 mph - N/A   Clear
2:54 AM 54.0 °F 37.0 °F 53% 30.04 in 10.0 mi ENE 4.6 mph - N/A   Clear
3:15 AM 53.8 °F 33.1 °F 45% 30.03 in 10.0 mi ENE 3.5 mph - N/A   Clear
3:35 AM 52.9 °F 33.8 °F 48% 30.03 in 10.0 mi ENE 4.6 mph - N/A   Clear
3:55 AM 51.4 °F 35.4 °F 54% 30.03 in 10.0 mi NE 5.8 mph - N/A   Clear
4:15 AM 51.3 °F 36.9 °F 58% 30.03 in 10.0 mi NE 3.5 mph - N/A   Clear
4:35 AM 52.2 °F 37.0 °F 56% 30.03 in 10.0 mi NE 4.6 mph - N/A   Clear
4:55 AM 50.9 °F 37.0 °F 59% 30.03 in 10.0 mi Calm Calm - N/A   Clear
5:14 AM 48.7 °F 37.8 °F 66% 30.03 in 10.0 mi Calm Calm - N/A   Clear
5:35 AM 49.3 °F 39.2 °F 68% 30.03 in 10.0 mi NE 4.6 mph - N/A   Clear
5:54 AM 49.6 °F 38.7 °F 66% 30.04 in 10.0 mi NE 3.5 mph - N/A   Clear
6:15 AM 50.0 °F 38.1 °F 64% 30.04 in 10.0 mi Calm Calm - N/A   Clear
6:35 AM 49.6 °F 38.1 °F 65% 30.04 in 10.0 mi NNE 4.6 mph - N/A   Clear
6:55 AM 50.2 °F 39.6 °F 67% 30.05 in 10.0 mi NNE 5.8 mph - N/A   Clear
7:14 AM 52.3 °F 40.3 °F 64% 30.05 in 10.0 mi NE 4.6 mph - N/A   Clear
7:35 AM 54.1 °F 41.2 °F 62% 30.05 in 10.0 mi NE 6.9 mph - N/A   Clear
7:55 AM 55.2 °F 40.3 °F 57% 30.06 in 10.0 mi NE 10.4 mph - N/A   Clear
8:15 AM 56.3 °F 41.0 °F 57% 30.06 in 10.0 mi NE 8.1 mph - N/A   Clear
8:35 AM 57.7 °F 40.8 °F 53% 30.06 in 10.0 mi NE 6.9 mph - N/A   Clear
8:55 AM 59.2 °F 41.2 °F 51% 30.06 in 10.0 mi NE 5.8 mph - N/A   Clear
9:15 AM 60.3 °F 40.3 °F 48% 30.06 in 10.0 mi NE 5.8 mph - N/A   Clear
9:34 AM 61.9 °F 41.0 °F 46% 30.06 in 10.0 mi NE 3.5 mph - N/A   Clear
9:55 AM 63.7 °F 40.3 °F 42% 30.06 in 10.0 mi North 3.5 mph - N/A   Clear
10:15 AM 66.2 °F 40.3 °F 39% 30.05 in 10.0 mi NE 4.6 mph - N/A   Clear
10:35 AM 67.8 °F 40.6 °F 37% 30.05 in 10.0 mi NE 4.6 mph - N/A   Clear
10:55 AM 68.5 °F 40.1 °F 35% 30.05 in 10.0 mi NE 4.6 mph - N/A   Clear
11:15 AM 70.9 °F 40.1 °F 33% 30.05 in 10.0 mi ESE 5.8 mph - N/A   Clear
11:35 AM 72.3 °F 36.0 °F 26% 30.05 in 10.0 mi ENE 6.9 mph - N/A   Clear
11:54 AM 72.9 °F 36.3 °F 26% 30.05 in 10.0 mi NE 10.4 mph - N/A   Clear
12:15 PM 74.1 °F 30.2 °F 20% 30.05 in 10.0 mi ENE 8.1 mph - N/A   Clear
12:34 PM 74.7 °F 30.6 °F 20% 30.04 in 10.0 mi East 9.2 mph - N/A   Clear
12:55 PM 75.6 °F 30.4 °F 19% 30.04 in 10.0 mi NE 6.9 mph - N/A   Clear
1:14 PM 75.6 °F 30.9 °F 19% 30.03 in 10.0 mi NNE 6.9 mph - N/A   Clear
1:35 PM 76.3 °F 30.9 °F 19% 30.02 in 10.0 mi North 8.1 mph - N/A   Clear
1:55 PM 76.6 °F 27.9 °F 17% 30.02 in 10.0 mi ESE 5.8 mph - N/A   Clear
2:14 PM 76.8 °F 25.2 °F 15% 30.01 in 10.0 mi East 6.9 mph - N/A   Clear
2:35 PM 77.5 °F 27.0 °F 16% 30.01 in 10.0 mi ENE 8.1 mph - N/A   Clear
2:55 PM 78.1 °F 27.7 °F 16% 30.00 in 10.0 mi ENE 5.8 mph 9.2 mph N/A   Clear
3:15 PM 77.0 °F 30.9 °F 19% 30.00 in 10.0 mi ESE 8.1 mph - N/A   Clear
3:35 PM 77.5 °F 30.0 °F 18% 29.99 in 10.0 mi East 9.2 mph - N/A   Clear
3:55 PM 77.5 °F 28.9 °F 17% 29.99 in 10.0 mi ENE 6.9 mph - N/A   Clear
4:15 PM 78.1 °F 26.6 °F 15% 29.98 in 10.0 mi ENE 6.9 mph - N/A   Clear
4:34 PM 77.5 °F 26.8 °F 15% 29.98 in 10.0 mi East 10.4 mph 16.1 mph N/A   Clear
4:55 PM 77.5 °F 28.6 °F 17% 29.97 in 10.0 mi East 6.9 mph - N/A   Clear
5:15 PM 76.8 °F 26.8 °F 16% 29.97 in 10.0 mi East 5.8 mph - N/A   Clear
5:35 PM 76.6 °F 25.3 °F 15% 29.97 in 4.0 mi Calm Calm - N/A   Haze
5:55 PM 77.2 °F 26.2 °F 15% 29.96 in 10.0 mi East 8.1 mph - N/A   Clear
6:14 PM 77.5 °F 28.2 °F 16% 29.96 in 10.0 mi SE 3.5 mph - N/A   Clear
6:55 PM 75.4 °F 24.3 °F 15% 29.96 in 10.0 mi ESE 5.8 mph - N/A   Clear
7:15 PM 74.1 °F 26.4 °F 17% 29.97 in 10.0 mi SE 6.9 mph - N/A   Clear
7:35 PM 73.4 °F 30.0 °F 20% 29.97 in 10.0 mi SE 3.5 mph - N/A   Clear
7:54 PM 71.4 °F 33.1 °F 24% 29.97 in 10.0 mi SSE 4.6 mph - N/A   Clear
8:15 PM 69.4 °F 36.7 °F 30% 29.98 in 10.0 mi SW 3.5 mph - N/A   Clear
8:35 PM 68.7 °F 36.0 °F 30% 29.98 in 10.0 mi West 4.6 mph - N/A   Clear
8:55 PM 67.3 °F 35.6 °F 31% 29.99 in 10.0 mi WNW 5.8 mph - N/A   Clear
9:15 PM 65.5 °F 36.0 °F 34% 29.99 in 10.0 mi Calm Calm - N/A   Clear
9:35 PM 64.8 °F 36.7 °F 35% 30.00 in 10.0 mi NNW 4.6 mph - N/A   Clear
9:55 PM 64.2 °F 35.6 °F 35% 30.00 in 10.0 mi NW 3.5 mph - N/A   Clear
10:15 PM 60.4 °F 36.3 °F 41% 30.01 in 10.0 mi Calm Calm - N/A   Clear
10:35 PM 59.2 °F 38.5 °F 46% 30.01 in 10.0 mi Calm Calm - N/A   Clear
10:55 PM 58.6 °F 38.5 °F 47% 30.01 in 10.0 mi Calm Calm - N/A   Clear
11:15 PM 57.0 °F 40.5 °F 54% 30.01 in 10.0 mi Calm Calm - N/A   Clear
11:34 PM 55.8 °F 40.5 °F 56% 30.01 in 10.0 mi Calm Calm - N/A   Clear
11:55 PM 53.2 °F 42.3 °F 66% 30.01 in 10.0 mi Calm Calm - N/A   Clear